Station APAM2 - 8575512 - Annapolis, MD Image indicating link to RSS feed of recent meteorological observations for station APAM2


Conditions at APAM2 as of
(5:30 pm EDT)
2130 GMT on 09/03/2026:
     

Click on the graph icon in the table below to see a time series plot of the last five days of that observation.

5-day plot - Wind Direction Wind Direction (WDIR):SSE ( 150 deg true )
5-day plot - Wind Speed Wind Speed (WSPD): 6.0 kts
5-day plot - Wind Gust Wind Gust (GST): 8.9 kts
5-day plot - Atmospheric Pressure Atmospheric Pressure (PRES):29.91 in
5-day plot - Air Temperature Air Temperature (ATMP): 90.5 °F
5-day plot - Water Temperature Water Temperature (WTMP): 83.5 °F
5-day plot -  Wind Speed, Wind Gust and Atmospheric Pressure Combined plot of Wind Speed, Gust, and Air Pressure
NOS Water Level Observation Network Water Level
Previous observations
TIME
(EDT)
5-day plot - Wind Direction
WDIR
 
5-day plot - Wind Speed
WSPD
kts
5-day plot - Wind Gust
GST
kts
5-day plot - Wave Height
WVHT
ft
5-day plot - Dominant Wave Period
DPD
sec
5-day plot - Average Wave Period
APD
sec
5-day plot - Mean Wave Direction
MWD
 
5-day plot - Atmospheric Pressure
PRES
in
5-day plot - Pressure Tendency
PTDY
in
5-day plot - Air Temperature
ATMP
°F
5-day plot - Water Temperature
WTMP
°F
5-day plot - Dew Point
DEWP
°F
5-day plot - Salinity
SAL
psu
5-day plot - Visibility
VIS
nmi
5-day plot - Tide (above MLLW)
TIDE
ft
2026-09-03 05:24 pm S 5.1 8.9----29.91- 91.6 83.5----
2026-09-03 05:18 pmSSE 4.1 9.9----29.91-- 83.5----
2026-09-03 05:12 pmSSE 2.9 9.9----29.91-- 83.5----
2026-09-03 05:06 pm S 6.0 8.9----29.91-- 83.5----
2026-09-03 05:00 pmSSE 5.1 8.9----29.91-0.06 92.3 83.7----
2026-09-03 04:54 pm S 5.1 8.0----29.91- 93.0 83.7----
2026-09-03 04:48 pm S 4.1 8.9----29.91- 93.4 83.5----
2026-09-03 04:42 pm SW 5.1 8.0----29.91- 93.0 83.5----
2026-09-03 04:36 pmSSW 4.1 8.9----29.91- 93.0 83.5----
2026-09-03 04:30 pmSSW 5.1 8.9----29.91- 92.8 83.3----
2026-09-03 04:24 pmSSW 4.1 7.0----29.92- 92.3 83.3----
2026-09-03 04:18 pmNNW 1.9 7.0----29.92-- 83.1----
2026-09-03 04:12 pm W 5.1 8.0----29.92-- 83.1----
2026-09-03 04:06 pmWSW 1.9 7.0----29.93-- 83.1----
2026-09-03 04:00 pmWSW 1.9 5.1----29.93-0.06 91.9 83.1----
2026-09-03 03:54 pmWNW 1.9 5.1----29.93- 90.9 82.9----
2026-09-03 03:48 pm W 5.1 8.9----29.94- 90.1 82.9----
2026-09-03 03:42 pm W 1.9 6.0----29.94- 90.3 82.9----
2026-09-03 03:36 pmWSW 1.0 6.0----29.94- 90.9 82.9----
2026-09-03 03:30 pm W 4.1 7.0----29.94- 90.1 82.9----
2026-09-03 03:24 pm W 4.1 6.0----29.94- 90.3 82.9----
2026-09-03 03:18 pm SW 2.9 9.9----29.95-- 82.8----
2026-09-03 03:12 pm SW 4.1 8.0----29.95-- 82.8----
2026-09-03 03:06 pmWSW 2.9 7.0----29.95-- 82.8----
2026-09-03 03:00 pmWSW 2.9 11.1----29.95-0.10 91.4 82.8----
2026-09-03 02:54 pmWSW 1.9 9.9----29.95- 91.0 82.6----
2026-09-03 02:48 pm W 4.1 8.0----29.95- 90.9 82.6----
2026-09-03 02:42 pmWSW 5.1 8.9----29.96- 90.0 82.6----
2026-09-03 02:36 pm W 5.1 8.9----29.96- 88.9 82.6----
2026-09-03 02:30 pm W 5.1 9.9----29.95- 88.5 82.6----
2026-09-03 02:24 pm SW 5.1 9.9----29.95- 88.9 82.6----
2026-09-03 02:18 pmSSW 4.1 8.0----29.96-- 82.6----
2026-09-03 02:12 pmWSW 4.1 7.0----29.96-- 82.6----
2026-09-03 02:06 pmWSW 1.9 6.0----29.96-- 82.6----
2026-09-03 02:00 pmWSW 1.9 7.0----29.97-0.05 86.4 82.6----
2026-09-03 01:54 pm SW 2.9 7.0----29.97- 85.8 82.6----
2026-09-03 01:48 pm SW 4.1 8.9----29.97-- 82.6----
2026-09-03 01:42 pm SW 4.1 7.0----29.97-- 82.6----
2026-09-03 01:36 pm SE 1.0 6.0----29.97-- 82.6----
2026-09-03 01:30 pmSSW 5.1 8.0----29.97- 84.9 82.4----
2026-09-03 01:24 pmSSW 2.9 6.0----29.97- 84.0 82.6----
2026-09-03 01:18 pmSSW 4.1 8.0----29.98-- 82.4----
2026-09-03 01:12 pmSSW 5.1 9.9----29.98-- 82.4----
2026-09-03 01:06 pmSSW 4.1 11.1----29.98-- 82.4----
2026-09-03 01:00 pmSSW 6.0 9.9----29.99-0.01 82.8 82.4----
2026-09-03 12:54 pm SW 2.9 8.0----29.99- 83.3 82.6----
2026-09-03 12:48 pm S 5.1 8.9----29.98- 82.8 82.6----
2026-09-03 12:42 pm S 5.1 7.0----30.00- 82.8 82.6----
2026-09-03 12:36 pmSSW 5.1 6.0----30.00- 82.8 82.6----
2026-09-03 12:30 pm- 0.0 2.9----30.00- 82.9 82.6----
2026-09-03 12:24 pmSSW 2.9 8.0----30.01- 82.4 82.6----
2026-09-03 12:18 pm SW 1.9 9.9----30.02-- 82.6----
2026-09-03 12:12 pm W 8.0 12.0----30.04-- 82.6----
2026-09-03 12:06 pm W 6.0 13.0----30.05-- 82.6----
2026-09-03 12:00 pm W 4.1 8.0----30.05+0.01 82.0 82.6----
2026-09-03 11:54 amWSW 2.9 8.0----30.04- 82.2 82.6----
2026-09-03 11:48 amSSW 5.1 8.0----30.03- 82.0 82.6----
2026-09-03 11:42 am SW 4.1 8.0----30.03- 82.2 82.4----
2026-09-03 11:36 am S 4.1 7.0----30.02- 82.8 82.4----
2026-09-03 11:30 am S 4.1 9.9----30.02- 82.6 82.4----
2026-09-03 11:24 am S 7.0 9.9----30.02- 82.2 82.4----
2026-09-03 11:18 am S 5.1 9.9----30.01-- 82.4----
2026-09-03 11:12 am S 8.0 12.0----30.01-- 82.4----
2026-09-03 11:06 amSSW 4.1 7.0----30.02-- 82.4----
2026-09-03 11:00 am S 5.1 8.9----30.01-0.04 82.4 82.4----
2026-09-03 10:54 am S 5.1 8.9----30.01- 82.0 82.4----
2026-09-03 10:48 am S 8.0 9.9----30.00- 81.7 82.4----
2026-09-03 10:42 amSSE 6.0 9.9----30.00- 81.5 82.4----
2026-09-03 10:36 am S 4.1 11.1----30.01- 81.7 82.4----
2026-09-03 10:30 am S 6.0 8.0----30.01- 81.5 82.4----
2026-09-03 10:24 amSSE 5.1 8.0----30.01- 80.8 82.4----
2026-09-03 10:18 amSSE 2.9 8.9----30.00-- 82.4----
2026-09-03 10:12 amSSE 4.1 8.0----30.00-- 82.4----
2026-09-03 10:06 am S 5.1 7.0----30.00-- 82.4----
2026-09-03 10:00 amSSE 1.9 8.0----30.00-0.04 79.9 82.4----
2026-09-03 09:54 am SE 4.1 8.0----29.99- 79.5 82.4----
2026-09-03 09:48 am SE 6.0 8.9----29.99- 79.5 82.4----
2026-09-03 09:42 am SE 6.0 8.0----29.99- 79.5 82.4----
2026-09-03 09:36 amSSE 4.1 6.0----30.01- 79.5 82.4----
2026-09-03 09:30 am SE 2.9 6.0----30.01- 79.2 82.4----
2026-09-03 09:24 am SE 1.9 7.0----30.02- 79.0 82.2----
2026-09-03 09:18 am SE 4.1 6.0----30.02-- 82.2----
2026-09-03 09:12 amESE 5.1 7.0----30.02-- 82.2----
2026-09-03 09:06 amESE 5.1 8.0----30.03-- 82.2----
2026-09-03 09:00 amESE 5.1 7.0----30.03+0.04 78.3 82.2----
2026-09-03 08:54 amESE 5.1 8.0----30.03- 78.4 82.4----
2026-09-03 08:48 am E 6.0 8.0----30.04- 78.4 82.4----
2026-09-03 08:42 am E 2.9 5.1----30.05- 78.4 82.4----
2026-09-03 08:36 am E 2.9 5.1----30.05- 78.3 82.4----
2026-09-03 08:30 am E 4.1 5.1----30.05- 78.1 82.4----
2026-09-03 08:24 am E 1.9 2.9----30.05- 78.1 82.4----
2026-09-03 08:18 am- 0.0 1.9----30.06-- 82.4----
2026-09-03 08:12 am N 1.0 2.9----30.06-- 82.2----
2026-09-03 08:06 amNNE 2.9 4.1----30.06-- 82.2----
2026-09-03 08:00 amNNW 2.9 5.1----30.06+0.04 78.3 82.2----
2026-09-03 07:54 am NW 1.9 2.9----30.06- 78.1 82.4----
2026-09-03 07:48 amNNW 2.9 4.1----30.06-- 82.4----
2026-09-03 07:42 am N 2.9 5.1----30.06-- 82.4----
2026-09-03 07:36 amNNE 2.9 5.1----30.06-- 82.4----
2026-09-03 07:30 amENE 4.1 5.1----30.05- 78.1 82.4----
2026-09-03 07:24 amNNE 2.9 6.0----30.05- 77.9 82.4----
2026-09-03 07:18 amNNE 4.1 6.0----30.05-- 82.4----
2026-09-03 07:12 am NE 5.1 7.0----30.04-- 82.4----
2026-09-03 07:06 am NE 4.1 6.0----30.04-- 82.4----
2026-09-03 07:00 am NE 4.1 6.0----30.04+0.03 77.7 82.4----
2026-09-03 06:54 am N 5.1 6.0----30.04- 77.7 82.4----
2026-09-03 06:48 amNNE 4.1 7.0----30.03- 77.7 82.4----
2026-09-03 06:42 am N 5.1 8.0----30.03- 77.9 82.4----
2026-09-03 06:36 am N 6.0 8.0----30.03- 78.1 82.4----
2026-09-03 06:30 am N 7.0 8.9----30.02- 78.6 82.4----
2026-09-03 06:24 am E 5.1 8.0----30.01- 79.0 82.4----
2026-09-03 06:18 amESE 7.0 8.9----30.00-- 82.4----
2026-09-03 06:12 amESE 6.0 8.9----30.00-- 82.4----
2026-09-03 06:06 amESE 6.0 8.9----29.99-- 82.4----
2026-09-03 06:00 amESE 7.0 9.9----29.99-0.01 78.6 82.4----
2026-09-03 05:54 am E 8.0 9.9----30.00- 78.6 82.4----
2026-09-03 05:48 am E 8.0 9.9----30.00- 78.6 82.4----
2026-09-03 05:42 am E 8.9 9.9----30.01- 78.8 82.4----
2026-09-03 05:36 am E 8.0 8.9----30.01- 78.8 82.4----
2026-09-03 05:30 am E 7.0 8.9----30.01- 79.0 82.4----
2026-09-03 05:24 am E 8.0 8.9----30.02- 78.8 82.4----
2026-09-03 05:18 am E 8.0 8.9----30.01-- 82.4----
2026-09-03 05:12 am E 7.0 8.0----30.01-- 82.4----
2026-09-03 05:06 am E 7.0 8.9----30.01-- 82.4----
2026-09-03 05:00 am E 7.0 8.0----30.01+0.00 79.2 82.4----
2026-09-03 04:54 amENE 4.1 7.0----30.01- 79.2 82.4----
2026-09-03 04:48 am E 6.0 7.0----30.01- 79.2 82.4----
2026-09-03 04:42 am E 7.0 8.0----30.01- 79.2 82.4----
2026-09-03 04:36 am E 6.0 7.0----30.02- 79.2 82.4----
2026-09-03 04:30 am E 6.0 7.0----30.01- 79.5 82.4----
2026-09-03 04:24 amESE 5.1 8.0----30.01- 79.5 82.4----
2026-09-03 04:18 am SE 2.9 6.0----30.01-- 82.4----
2026-09-03 04:12 amESE 2.9 5.1----30.01-- 82.6----
2026-09-03 04:06 amESE 4.1 5.1----30.01-- 82.6----
2026-09-03 04:00 amESE 2.9 4.1----30.01-0.01 78.6 82.6----
2026-09-03 03:54 am E 1.9 2.9----30.01- 78.4 82.6----
2026-09-03 03:48 am- 0.0 1.0----30.02- 78.3 82.6----
2026-09-03 03:42 am- 0.0 1.9----30.02- 78.3 82.6----
2026-09-03 03:36 amSSE 1.0 2.9----30.01- 78.3 82.6----
2026-09-03 03:30 am S 1.9 2.9----30.01- 78.1 82.6----
2026-09-03 03:24 amSSE 1.0 2.9----30.01- 77.9 82.6----
2026-09-03 03:18 amSSE 1.9 4.1----30.01-- 82.6----
2026-09-03 03:12 am S 1.0 4.1----30.01-- 82.6----
2026-09-03 03:06 amSSE 2.9 5.1----30.01-- 82.6----
2026-09-03 03:00 am SE 2.9 6.0----30.00-0.03 77.7 82.6----
2026-09-03 02:54 am SE 2.9 6.0----30.00- 77.7 82.6----
2026-09-03 02:48 amSSE 4.1 7.0----30.00- 77.5 82.6----
2026-09-03 02:42 amSSE 1.9 5.1----30.00- 77.7 82.6----
2026-09-03 02:36 am S 2.9 5.1----30.00- 77.7 82.4----
2026-09-03 02:30 amSSE 2.9 5.1----30.00- 77.7 82.6----
2026-09-03 02:24 amSSE 4.1 7.0----30.01- 77.9 82.6----
2026-09-03 02:18 amSSE 4.1 7.0----30.01-- 82.6----
2026-09-03 02:12 am SE 5.1 7.0----30.00-- 82.6----
2026-09-03 02:06 amSSE 2.9 8.0----30.01-- 82.6----
2026-09-03 02:00 am SE 5.1 8.0----30.01-0.03 78.1 82.6----
2026-09-03 01:54 am SE 5.1 8.9----30.01- 78.1 82.6----
2026-09-03 01:48 amESE 6.0 8.0----30.01- 78.1 82.6----
2026-09-03 01:42 amESE 6.0 8.9----30.01- 78.3 82.6----
2026-09-03 01:36 am E 7.0 8.9----30.02- 78.3 82.6----
2026-09-03 01:30 am E 7.0 9.9----30.02- 78.1 82.6----
2026-09-03 01:24 am E 8.0 9.9----30.02- 78.1 82.6----
2026-09-03 01:18 am E 6.0 8.9----30.02- 78.1 82.6----
2026-09-03 01:12 am E 8.0 11.1----30.01- 78.1 82.6----
2026-09-03 01:06 am E 6.0 8.0----30.02- 78.1 82.6----
2026-09-03 01:00 am E 7.0 8.9----30.02-0.01 77.7 82.8----
2026-09-03 12:54 am E 8.9 11.1----30.02- 77.9 82.8----
2026-09-03 12:48 am-------30.02- 78.1 82.8----
2026-09-03 12:42 am-------30.02- 77.9 82.8----
2026-09-03 12:36 am-------30.02- 77.9 82.8----
2026-09-03 12:30 amENE 5.1 7.0----30.03- 77.7 82.8----
2026-09-03 12:24 amENE 5.1 5.1----30.03- 77.9 82.8----
2026-09-03 12:18 amENE 5.1 6.0----30.03-- 82.8----
2026-09-03 12:12 amENE 5.1 6.0----30.03-- 82.8----
2026-09-03 12:06 am NE 4.1 4.1----30.03-- 82.8----
2026-09-03 12:00 amNNE 4.1 5.1----30.03+0.00 77.5 82.8----
2026-09-02 11:54 pmENE 4.1 8.0----30.03- 78.3 82.8----
2026-09-02 11:48 pm E 5.1 6.0----30.03- 78.4 82.8----
2026-09-02 11:42 pmESE 4.1 8.0----30.03- 78.6 82.8----
2026-09-02 11:36 pm E 6.0 8.0----30.03- 78.8 82.8----
2026-09-02 11:30 pmESE 6.0 8.0----30.03- 78.6 82.8----
2026-09-02 11:24 pmESE 2.9 4.1----30.02- 77.9 82.8----
2026-09-02 11:18 pm E 1.9 2.9----30.03-- 82.8----
2026-09-02 11:12 pm NE 2.9 4.1----30.03-- 82.8----
2026-09-02 11:06 pm E 4.1 4.1----30.03-- 82.8----
2026-09-02 11:00 pmENE 2.9 2.9----30.03+0.00 77.7 82.8----
2026-09-02 10:54 pm NE 1.9 1.9----30.03- 77.5 82.8----
2026-09-02 10:48 pmNNE 1.9 1.9----30.04- 77.0 82.8----
2026-09-02 10:42 pmNNW 1.0 1.9----30.04- 76.8 82.8----
2026-09-02 10:36 pm N 1.0 4.1----30.04- 76.6 82.8----
2026-09-02 10:30 pm N 2.9 4.1----30.04- 76.6 82.8----
2026-09-02 10:24 pm N 1.9 2.9----30.04- 76.8 82.8----
2026-09-02 10:18 pm NE 1.9 1.9----30.03-- 82.9----
2026-09-02 10:12 pm E 1.9 2.9----30.03-- 82.9----
2026-09-02 10:06 pm NE 1.9 2.9----30.03-- 82.9----
2026-09-02 10:00 pmNNE 1.9 2.9----30.03+0.00 77.0 82.9----
2026-09-02 09:54 pmNNE 1.9 2.9----30.03- 76.8 82.9----
2026-09-02 09:48 pm N 1.9 2.9----30.04- 76.6 82.9----
2026-09-02 09:42 pm N 2.9 4.1----30.04- 76.6 82.9----
2026-09-02 09:36 pm NE 2.9 4.1----30.04- 77.2 82.9----
2026-09-02 09:30 pm NE 2.9 4.1----30.03- 77.0 82.9----
2026-09-02 09:24 pmENE 2.9 4.1----30.03- 77.4 82.9----
2026-09-02 09:18 pm E 2.9 4.1----30.03-- 82.9----
2026-09-02 09:12 pm E 2.9 2.9----30.03-- 82.9----
2026-09-02 09:06 pm E 2.9 2.9----30.03-- 82.8----
2026-09-02 09:00 pm NE 1.9 4.1----30.04+0.00 76.6 82.8----
2026-09-02 08:54 pmNNE 4.1 5.1----30.03- 76.6 82.9----
2026-09-02 08:48 pmNNE 5.1 6.0----30.03- 76.3 82.9----
2026-09-02 08:42 pmNNE 5.1 6.0----30.03- 76.5 82.9----
2026-09-02 08:36 pm NE 5.1 6.0----30.03- 76.5 82.9----
2026-09-02 08:30 pm NE 4.1 5.1----30.02- 76.5 82.9----
2026-09-02 08:24 pm NE 4.1 5.1----30.02- 76.3 82.9----
2026-09-02 08:18 pmNNE 4.1 5.1----30.03-- 82.9----
2026-09-02 08:12 pmNNE 2.9 4.1----30.03-- 82.9----
2026-09-02 08:06 pmNNE 4.1 4.1----30.03-- 82.9----
2026-09-02 08:00 pm N 4.1 5.1----30.03-0.01 76.5 82.9----
2026-09-02 07:54 pmNNE 5.1 6.0----30.03- 76.5 82.9----
2026-09-02 07:48 pmNNE 4.1 5.1----30.02-- 82.9----
2026-09-02 07:42 pmNNE 4.1 5.1----30.03-- 82.9----
2026-09-02 07:36 pmNNE 2.9 4.1----30.03-- 82.9----
2026-09-02 07:30 pmWNW 1.0 1.9----30.03- 77.7 82.9----
2026-09-02 07:24 pm W 1.0 1.9----30.03- 77.9 82.9----
2026-09-02 07:18 pmWNW 1.9 1.9----30.03-- 82.9----
2026-09-02 07:00 pmWSW 1.0 4.1----30.03-0.01 78.1 82.9----
2026-09-02 06:54 pm W 1.0 1.9----30.03- 78.3 83.1----
2026-09-02 06:48 pm W 1.0 1.9----30.03- 78.4 82.9----
2026-09-02 06:42 pm S 1.9 4.1----30.03- 78.4 82.8----
2026-09-02 06:36 pmSSW 1.0 1.9----30.03- 78.4 82.8----
2026-09-02 06:30 pm S 1.0 2.9----30.03- 78.4 82.8----
2026-09-02 06:24 pmSSW 1.0 4.1----30.03- 78.3 82.8----
2026-09-02 06:18 pmSSW 1.0 2.9----30.03-- 82.6----
2026-09-02 06:12 pm- 0.0 1.9----30.03-- 82.2----
2026-09-02 06:06 pm- 0.0 1.0----30.03-- 82.4----
2026-09-02 06:00 pm NW 1.0 1.9----30.04+0.00 78.1 82.6----
2026-09-02 05:54 pmSSE 1.0 1.9----30.04- 78.1 82.6----